Location: El Bakhil
(32.7726°N, 5.5387°W)
Time: 04:06:00
(UTC+00:00)

Cosmos 2219 Rocket - Pass Details

Date: 03 March 2021
Orbit: 826 x 848 km, 71.0° (Epoch: 12 April)

Event Time Altitude Azimuth Distance (km) Brightness Sun altitude
Rises 21:03:38 0° 232° (SW) 3,352 5.7 -34.7°
Reaches altitude 10° 21:06:30 10° 245° (WSW) 2,424 5.1 -35.2°
Maximum altitude 21:10:58 25° 299° (WNW) 1,635 4.2 -36.1°
Drops below altitude 10° 21:15:28 10° 353° (N) 2,441 4.8 -37.0°
Sets 21:18:23 0° 7° (N) 3,382 5.5 -37.6°
